Regional Weather Roundup
Issued by NWS

Home | Current Version | Previous Version | Text Only | Print | Product List | Glossary On
Versions: 1 2 3 4 5 6 7 8 9 10 11 12 13 14 15 16 17 18 19 20 21 22 23 24 25 26 27 28 29 30 31 32 33 34 35 36 37 38 39 40 41 42 43 44 45 46 47 48 49 50
677
ASUS43 KDTX 091010
RWRMI
MICHIGAN HOURLY REGIONAL WEATHER ROUNDUP
NATIONAL WEATHER SERVICE DETROIT/PONTIAC MI
ISSUED BY NATIONAL WEATHER SERVICE GRAND RAPIDS MI
500 AM EST FRI DEC 09 2016

NOTE: "FAIR" INDICATES FEW OR NO CLOUDS BELOW 12,000 FEET WITH NO
SIGNIFICANT WEATHER AND/OR OBSTRUCTION TO VISIBILITY.

MIZ047>049-052>055-059>063-066>070-074>076-081>083-091100-
SOUTHEAST LOWER MICHIGAN

CITY           SKY/WX    TMP DP  RH WIND       PRES   REMARKS
ADRIAN         CLOUDY    24  20  84 W12       30.33R WCI  13
ALMA           PTCLDY    24  22  91 W7        30.30R WCI  16
ANN ARBOR      FLURRIES  25  22  88 SW10      30.29S WCI  15
BAD AXE        CLOUDY    27  20  76 NW8       30.23S WCI  18
DETROIT CITY   CLOUDY    27  23  85 W8        30.29R WCI  19
DETROIT        FLURRIES  26  22  84 SW10      30.31R WCI  16
FLINT          CLOUDY    26  23  88 W9        30.27S WCI  17
GROSSE ILE     CLOUDY    26  22  85 W7        30.30R WCI  18
HILLSDALE      LGT SNOW  23  21  93 W8        30.30R WCI  14
HOWELL         CLOUDY    27  25  92 W8        30.28R WCI  18

CITY           SKY/WX    TMP DP  RH WIND       PRES   REMARKS
JACKSON        LGT SNOW  24  20  84 W9        30.30R FOG     WCI  14
LANSING        CLOUDY    27  23  85 W8        30.30R WCI  19
MASON          CLOUDY    27  26  96 W5        30.29R WCI  21
MONROE         CLOUDY    25  22  90 W10       30.31S WCI  15
MT. CLEMENS    MIX PCPN  28  25  86 SW6       30.25R WCI  22
PONTIAC        FLURRIES  27  22  81 W12       30.25R WCI  17
PORT HOPE        N/A     29  18  63 NW17G25   30.20S WCI  17
PORT HURON     CLOUDY    27  23  86 W3        30.26R
TRI CITIES     CLEAR     20  18  92 W8        30.28R WCI  10
YPSILANTI      CLOUDY    26  23  88 W8        30.31R WCI  18
$$
MIZ043>046-050>051-056>058-064>065-071>073-077>080-091100-
SOUTHWEST LOWER MICHIGAN

CITY           SKY/WX    TMP DP  RH WIND       PRES   REMARKS
BATTLE CREEK   LGT SNOW  27  26  96 W9        30.32R FOG     WCI  18
BENTON HARBOR  LGT SNOW  30  24  78 NW8G18    30.36R WCI  22
BIG RAPIDS     CLOUDY    24  20  84 W6        30.28S WCI  17
COLDWATER      LGT SNOW  24  21  91 W12       30.32S WCI  12
HOLLAND        FLURRIES  30  21  69 N8G17     30.33R WCI  22
GRAND RAPIDS   LGT SNOW  27  23  85 W7        30.32R FOG     WCI  19
KALAMAZOO      LGT SNOW  27  22  81 SW6       30.33R WCI  20
MARSHALL       LGT SNOW  25  24  95 SW7       30.31R WCI  17
MOUNT PLEASANT CLEAR     24  19  83 W7        30.27R WCI  16
MUSKEGON       CLOUDY    31  18  58 NW13      30.34R WCI  21
STURGIS        FLURRIES  21  19  91 W12       30.34S WCI   9
$$
MIZ016>042-091100-
NORTHERN LOWER MICHIGAN

CITY           SKY/WX    TMP DP  RH WIND       PRES   REMARKS
ALPENA         MOCLDY    19  13  77 W6        30.24R WCI  11
BEAVER ISLAND  CLOUDY    25  15  64 NW7       30.28R WCI  17
BELLAIRE       LGT SNOW  25  24  94 CALM      30.27R
CADILLAC       LGT SNOW  24  20  84 W8        30.23S WCI  15
CHARLEVOIX     MOCLDY    28  15  59 N14G22    30.29R WCI  16
GAYLORD        CLOUDY    21  16  81 CALM      30.21R
HOUGHTON LAKE  LGT SNOW  23  19  85 W12       30.23S FOG     WCI  12
MANISTEE       FLURRIES  28  16  60 NW12G23   30.31R WCI  18
OSCODA         CLEAR     18  15  90 MISG      30.24R
PELLSTON       LGT SNOW  18  14  84 CALM      30.26R FOG
TRAVERSE CITY  FLURRIES  27  21  78 W9        30.27R WCI  18
LUDINGTON      CLOUDY    28  17  63 NW10      30.33R WCI  18
$$
MIZ007>008-015-091100-
EASTERN UPPER MICHIGAN

CITY           SKY/WX    TMP DP  RH WIND       PRES   REMARKS
KINROSS        FLURRIES  13  12  96 N3        30.25R
MACKINAC ISLAN CLOUDY    22  17  81 N5        30.25S WCI  15
NEWBERRY       CLOUDY    18  14  86 W6        30.25R WCI   9
S. S. MARIE    MOCLDY    20   8  60 N6        30.24S WCI  12
$$
MIZ004>006-011>014-085-091100-
CENTRAL UPPER MICHIGAN

CITY           SKY/WX    TMP DP  RH WIND       PRES   REMARKS
MANISTIQUE     LGT SNOW  22  21  98 W6        30.29R WCI  14
ESCANABA       CLEAR     18  13  80 NW10      30.33S WCI   6
MENOMINEE      CLEAR     20  13  74 NW8       30.37R WCI  10
SAWYER-GWINN   CLOUDY    14  11  89 W7        30.29R WCI   4
$$
MIZ001>003-009>011-084-091100-
WESTERN UPPER MICHIGAN

CITY           SKY/WX    TMP DP  RH WIND       PRES   REMARKS
IRON MOUNTAIN  CLEAR     17   9  70 NW12      30.31S WCI   4
HOUGHTON       LGT SNOW  20  14  77 N12       30.31S WCI   8
COPPER HARBOR    N/A     25  18  74 NE22G29   30.33R WCI  10
IRONWOOD       FLURRIES  17  12  80 W12       30.39R WCI   4
$$

ABBREVIATIONS USED IN REMARKS
   TC - TEMPERATURE IN CELSIUS
  WCI - WIND CHILL INDEX
   HX - HEAT INDEX
  VSB - VISIBILITY





USA.gov is the U.S. government's official web portal to all federal, state and local government web resources and services.